Content
SEND FEEDBACK

Daily
Averages
Monthly
Summary
Italy

REGGIO DI CALABRIA, ITALY


Home > Europe > Italy
Elevation: 69 feet     Latitude: 38 04N     Longitude: 015 39E

WEATHER
 
SELECT A DAY
Number of Records: 117,627;   Date Range: 7/1/96 - 8/10/14
 
SHARE

PRINT THIS DATA

[ ← Previous Day ]
WEATHER ALMANAC - NOVEMBER 5, 2013
[ Next Day → ]
[ °C ]   °F
Weather ElementAverageHighLow
Temperature65.4 °F73.4 °F (6:06 am)60.8 °F (4:50 pm)
Dewpoint58.1 °F64.4 °F (6:06 am)53.6 °F (7:28 am)
Humidity77.8 %94 % (3:42 pm)53 % (10:50 am)
Barometer29.51 in29.59 in (7:08 am)29.47 in (1:13 pm)
Wind Speed12.7 mph27.6 mph (7:08 am)
Wind Gust54.1 mph (7:08 am)
Weather ElementAverage
Visibility5.8 mi
Wind DirectionSSE (142.5 °)

Weather ElementTotal
Precipitation---
Cooling Degree Days2.1 (Base 65)
Growing Degree Days17.1 (Base 50)
Averaged from 28 records on November 5, 2013
WEATHER CONDITIONS BREAKOUT
WIND DIRECTION BREAKOUT
WEATHER BY HOUR - NOVEMBER 5, 2013
[ °C ]   °F
Local TimeTemperatureDewpointHumidityBarometerVisibilityWind DirectionWind SpeedGust SpeedPrecipitationEventsConditions
6:06 AM73.4 °F64.4 °F73 %29.56 in6.2 miSSE (160°)16.1 mphThunderstormScattered Clouds
6:50 AM73.4 °F64.4 °F73 %29.56 in6.2 miSouth (170°)17.3 mph35.7 mphThunderstormMostly Cloudy
7:08 AM62.6 °F57.2 °F82 %29.59 in4.3 miSSW (200°)27.6 mph54.1 mphRain-ThunderstormThunderstorms and Rain
7:28 AM62.6 °F53.6 °F72 %29.56 in6.2 miSE (130°)19.6 mph31.1 mphRain-ThunderstormThunderstorms and Rain
7:50 AM66.2 °F55.4 °F68 %29.53 in6.2 miSSE (150°)13.8 mphMostly Cloudy
8:50 AM69.8 °F57.2 °F64 %29.53 in6.2 miSouth (180°)12.7 mphMostly Cloudy
9:50 AM69.8 °F59.0 °F68 %29.53 in6.2 miSE (130°)16.1 mphMostly Cloudy
10:50 AM73.4 °F55.4 °F53 %29.50 in6.2 miSouth (170°)13.8 mph25.3 mphMostly Cloudy
11:50 AM69.8 °F57.2 °F64 %29.50 in6.2 miSouth (170°)13.8 mph27.6 mphMostly Cloudy
12:50 PM68.0 °F59.0 °F73 %29.50 in6.2 miSE (130°)12.7 mphLight Drizzle
1:13 PM68.0 °F59.0 °F73 %29.47 in6.2 miSSE (150°)8.1 mphMostly Cloudy
1:50 PM69.8 °F59.0 °F68 %29.47 in6.2 miSSE (160°)6.9 mphScattered Clouds
2:50 PM68.0 °F57.2 °F68 %29.47 in6.2 miSouth (180°)4.6 mphMostly Cloudy
3:24 PM62.6 °F59.0 °F88 %29.47 in1.9 miNW (310°)12.7 mphRainRain
3:42 PM62.6 °F60.8 °F94 %29.50 in4.3 miNorth (360°)6.9 mphRainRain
3:50 PM62.6 °F60.8 °F94 %29.50 in4.3 miNorth (10°)6.9 mphRainRain
4:35 PM62.6 °F59.0 °F88 %29.47 in6.2 miNNE (20°)11.5 mphLight Drizzle
4:50 PM60.8 °F57.2 °F88 %29.47 in6.2 miNNE (30°)11.5 mphLight Drizzle
5:35 PM60.8 °F59.0 °F94 %29.50 in3.7 miNorth (10°)10.4 mphRainRain
5:39 PM60.8 °F59.0 °F94 %29.50 in6.2 miNorth (360°)11.5 mph23.0 mphRainRain
5:50 PM60.8 °F57.2 °F88 %29.50 in6.2 miNorth (10°)12.7 mphRainLight Rain
6:50 PM60.8 °F57.2 °F88 %29.50 in6.2 miNNE (20°)10.4 mphRainLight Rain
7:50 PM62.6 °F57.2 °F82 %29.50 in6.2 miNNE (30°)11.5 mphScattered Clouds
8:50 PM64.4 °F57.2 °F77 %29.50 in6.2 miNorth (360°)10.4 mphScattered Clouds
9:50 PM66.2 °F55.4 °F68 %29.50 in6.2 miNorth (350°)15.0 mph28.8 mphScattered Clouds
10:50 PM64.4 °F55.4 °F73 %29.53 in6.2 miNNE (20°)16.1 mphScattered Clouds
11:36 PM62.6 °F57.2 °F82 %29.53 in6.2 miNorth (10°)12.7 mphRainRain
11:50 PM62.6 °F57.2 °F82 %29.53 in6.2 miNorth (10°)12.7 mphRainRain
Hourly data recorded from LICR, located miles away from Reggio di Calabria, Italy







STORIES FROM OUR PARTNERS